La Porte, IN

4:05 AM CDT on July 23, 2017 (GMT -0500)
La Porte Municipal

Weather History for KPPO - September, 2013

Change the Weather History Date:

Friday, September 6, 2013

  Actual Average (KSBN) Record (KSBN)
Temperature  
Mean Temperature 64 °F -  
Max Temperature 81 °F 78 °F 97 °F (1954)
Min Temperature 47 °F 57 °F 40 °F (1962)
Degree Days  
Heating Degree Days 1    
Growing Degree Days 14 (Base 50)    
Moisture  
Dew Point 54 °F    
Average Humidity 70    
Maximum Humidity 95    
Minimum Humidity 39    
Precipitation  
Precipitation 0.00 in - - ()
Sea Level Pressure  
Sea Level Pressure 30.18 in    
Wind  
Wind Speed 2 mph (South)    
Max Wind Speed 8 mph    
Max Gust Speed -    
Visibility 10 miles    
Events      
Averages and records for this station are not official NWS values.
T = Trace of Precipitation, MM = Missing Value Source: NWS Daily Summary

Daily Weather History Graph

Daily Weather History Graph

Search for Another Location

Airport or City:

Trip Planner

Search our weather history database for the weather conditions in past years. The results will help you decide how hot, cold, wet, or windy it might be!

Date:

Astronomy

Sep. 06, 2013 Rise Set
Actual Time 6:18 AM CDT 7:11 PM CDT
Civil Twilight 5:50 AM CDT 7:39 PM CDT
Nautical Twilight 5:16 AM CDT 8:12 PM CDT
Astronomical Twilight 4:41 AM CDT 8:47 PM CDT
Moon 7:31 AM CDT (9/6) 7:33 PM CDT (9/6)
Length of Visible Light 13h 49m
Length of Day
12h 52m
New Moon, 2% of the Moon is Illuminated
Sep 6
New Moon
Sep 12
First Quarter
Sep 19
Full
Sep 26
Last Quarter
Oct 4
New

Hourly Weather History & Observations

Time (CDT) Temp. Heat Index Dew Point Humidity Pressure Visibility Wind Dir Wind Speed Gust Speed Precip Events Conditions
12:15 AM 52.0 °F - 50.2 °F 94% 30.24 in 10.0 mi Calm Calm - N/A   Clear
12:35 AM 51.3 °F - 49.8 °F 95% 30.24 in 10.0 mi Calm Calm - N/A   Clear
12:55 AM 51.1 °F - 49.3 °F 94% 30.24 in 10.0 mi Calm Calm - N/A   Clear
1:15 AM 50.4 °F - 48.2 °F 92% 30.24 in 10.0 mi Calm Calm - N/A   Clear
1:35 AM 53.4 °F - 48.6 °F 84% 30.24 in 10.0 mi Calm Calm - N/A   Clear
1:55 AM 51.3 °F - 48.6 °F 90% 30.24 in 10.0 mi Calm Calm - N/A   Clear
2:15 AM 49.8 °F - 48.0 °F 94% 30.24 in 10.0 mi East 3.5 mph - N/A   Clear
2:35 AM 50.2 °F - 48.0 °F 92% 30.24 in 10.0 mi Calm Calm - N/A   Clear
2:55 AM 51.3 °F - 47.5 °F 87% 30.24 in 10.0 mi Calm Calm - N/A   Clear
3:15 AM 51.1 °F - 48.0 °F 89% 30.24 in 10.0 mi Calm Calm - N/A   Scattered Clouds
3:35 AM 49.5 °F - 47.5 °F 93% 30.25 in 10.0 mi Calm Calm - N/A   Scattered Clouds
3:55 AM 50.5 °F - 45.7 °F 83% 30.25 in 10.0 mi Calm Calm - N/A   Clear
4:15 AM 48.4 °F - 45.7 °F 90% 30.25 in 10.0 mi Calm Calm - N/A   Clear
4:35 AM 47.3 °F - 45.9 °F 95% 30.25 in 10.0 mi Calm Calm - N/A   Clear
4:55 AM 50.0 °F - 47.1 °F 90% 30.25 in 10.0 mi Calm Calm - N/A   Scattered Clouds
5:15 AM 48.4 °F - 46.2 °F 92% 30.25 in 10.0 mi Calm Calm - N/A   Clear
5:35 AM 48.0 °F - 45.5 °F 91% 30.25 in 10.0 mi Calm Calm - N/A   Clear
5:55 AM 49.1 °F - 46.4 °F 90% 30.26 in 10.0 mi East 3.5 mph - N/A   Scattered Clouds
6:15 AM 49.1 °F - 46.9 °F 92% 30.26 in 10.0 mi East 3.5 mph - N/A   Scattered Clouds
6:35 AM 49.1 °F - 47.7 °F 95% 30.26 in 10.0 mi Calm Calm - N/A   Scattered Clouds
6:55 AM 50.0 °F - 47.5 °F 91% 30.26 in 10.0 mi Calm Calm - N/A   Scattered Clouds
7:15 AM 52.7 °F - 49.1 °F 88% 30.27 in 10.0 mi East 3.5 mph - N/A   Overcast
7:35 AM 53.8 °F - 49.8 °F 86% 30.26 in 10.0 mi ESE 4.6 mph - N/A   Scattered Clouds
7:55 AM 55.2 °F - 50.0 °F 83% 30.26 in 10.0 mi Calm Calm - N/A   Scattered Clouds
8:15 AM 57.0 °F - 49.8 °F 77% 30.25 in 10.0 mi SE 3.5 mph - N/A   Scattered Clouds
8:35 AM 59.9 °F - 50.2 °F 70% 30.25 in 10.0 mi SSE 5.8 mph - N/A   Unknown
8:55 AM 61.5 °F - 50.4 °F 67% 30.24 in 10.0 mi SE 5.8 mph - N/A   Scattered Clouds
9:15 AM 63.1 °F - 50.2 °F 63% 30.25 in 10.0 mi SSE 8.1 mph - N/A   Clear
9:35 AM 64.9 °F - 50.7 °F 60% 30.24 in 10.0 mi SSE 4.6 mph - N/A   Clear
9:55 AM 66.4 °F - 50.7 °F 57% 30.24 in 10.0 mi South 4.6 mph - N/A   Clear
10:15 AM 68.0 °F - 50.5 °F 54% 30.24 in 10.0 mi South 6.9 mph - N/A   Clear
10:35 AM 69.8 °F - 49.6 °F 49% 30.23 in 10.0 mi SSE 5.8 mph - N/A   Clear
10:55 AM 71.2 °F - 49.6 °F 46% 30.23 in 10.0 mi NE 6.9 mph - N/A   Clear
11:15 AM 73.0 °F - 50.0 °F 44% 30.22 in 10.0 mi SSE 3.5 mph - N/A   Clear
11:35 AM 73.8 °F - 49.6 °F 43% 30.22 in 10.0 mi SSW 5.8 mph - N/A   Clear
11:55 AM 74.8 °F - 48.6 °F 39% 30.22 in 10.0 mi SW 6.9 mph - N/A   Clear
12:15 PM 76.1 °F - 49.8 °F 40% 30.21 in 10.0 mi SSW 5.8 mph - N/A   Clear
12:35 PM 77.0 °F - 50.2 °F 39% 30.20 in 10.0 mi South 4.6 mph - N/A   Scattered Clouds
12:55 PM 77.4 °F - 51.8 °F 41% 30.20 in 10.0 mi SW 6.9 mph - N/A   Scattered Clouds
1:15 PM 77.9 °F - 52.5 °F 41% 30.19 in 10.0 mi SSW 5.8 mph - N/A   Clear
1:35 PM 77.7 °F - 53.2 °F 43% 30.18 in 10.0 mi Calm Calm - N/A   Mostly Cloudy
1:55 PM 77.9 °F - 54.9 °F 45% 30.17 in 10.0 mi SW 4.6 mph - N/A   Overcast
2:15 PM 78.1 °F - 56.1 °F 47% 30.16 in 10.0 mi SSW 4.6 mph - N/A   Mostly Cloudy
2:35 PM 79.7 °F - 56.7 °F 45% 30.15 in 10.0 mi South 4.6 mph - N/A   Scattered Clouds
2:55 PM 79.9 °F - 57.4 °F 46% 30.15 in 10.0 mi SW 4.6 mph - N/A   Clear
3:15 PM 80.1 °F 80.4 °F 57.2 °F 45% 30.14 in 10.0 mi SW 5.8 mph - N/A   Scattered Clouds
3:35 PM 81.0 °F 81.1 °F 57.7 °F 45% 30.13 in 10.0 mi SSW 4.6 mph - N/A   Scattered Clouds
3:55 PM 80.6 °F 81.0 °F 58.8 °F 47% 30.13 in 10.0 mi SSW 4.6 mph - N/A   Clear
4:15 PM 79.7 °F - 59.5 °F 50% 30.12 in 10.0 mi WSW 4.6 mph - N/A   Clear
4:35 PM 79.7 °F - 58.6 °F 48% 30.12 in 10.0 mi SSW 3.5 mph - N/A   Clear
4:55 PM 79.7 °F - 59.4 °F 50% 30.11 in 10.0 mi SW 3.5 mph - N/A   Clear
5:15 PM 79.0 °F - 59.9 °F 52% 30.12 in 10.0 mi Calm Calm - N/A   Clear
5:35 PM 78.1 °F - 60.4 °F 54% 30.11 in 10.0 mi Calm Calm - N/A   Scattered Clouds
5:55 PM 77.5 °F - 61.0 °F 57% 30.11 in 10.0 mi Calm Calm - N/A   Mostly Cloudy
6:15 PM 77.9 °F - 61.3 °F 57% 30.11 in 10.0 mi SE 3.5 mph - N/A   Mostly Cloudy
6:35 PM 77.0 °F - 61.7 °F 59% 30.10 in 10.0 mi Calm Calm - N/A   Overcast
6:55 PM 74.7 °F - 63.0 °F 67% 30.10 in 10.0 mi Calm Calm - N/A   Scattered Clouds
7:15 PM 72.3 °F - 62.6 °F 71% 30.09 in 10.0 mi Calm Calm - N/A   Clear
7:35 PM 71.1 °F - 61.9 °F 73% 30.09 in 10.0 mi ESE 3.5 mph - N/A   Scattered Clouds
7:55 PM 68.0 °F - 63.3 °F 85% 30.09 in 10.0 mi ESE 3.5 mph - N/A   Clear
8:15 PM 68.5 °F - 62.6 °F 81% 30.10 in 10.0 mi Calm Calm - N/A   Clear
8:35 PM 69.1 °F - 62.1 °F 78% 30.10 in 10.0 mi Calm Calm - N/A   Clear
8:55 PM 68.4 °F - 61.5 °F 79% 30.10 in 10.0 mi Calm Calm - N/A   Clear
9:15 PM 68.7 °F - 60.8 °F 76% 30.09 in 10.0 mi South 4.6 mph - N/A   Clear
9:35 PM 69.1 °F - 60.1 °F 73% 30.09 in 10.0 mi SSE 4.6 mph - N/A   Clear
9:55 PM 68.4 °F - 59.9 °F 74% 30.08 in 10.0 mi SSE 3.5 mph - N/A   Clear
10:15 PM 68.4 °F - 59.9 °F 74% 30.08 in 10.0 mi South 4.6 mph - N/A   Clear
10:35 PM 68.2 °F - 59.5 °F 74% 30.08 in 10.0 mi South 4.6 mph - N/A   Clear
10:55 PM 67.1 °F - 59.5 °F 77% 30.07 in 10.0 mi South 3.5 mph - N/A   Clear
11:15 PM 66.4 °F - 59.7 °F 79% 30.07 in 10.0 mi Calm Calm - N/A   Clear
11:35 PM 64.9 °F - 59.9 °F 84% 30.07 in 10.0 mi Calm Calm - N/A   Clear
11:55 PM 64.9 °F - 59.5 °F 83% 30.07 in 10.0 mi South 3.5 mph - N/A   Scattered Clouds